When you browse on this site, cookies collect data to enhance your experience and personalize the content and advertising you see.
Visit our Privacy Policy to learn more. By continuing to use the site, you agree to this use of cookies and data.
  • In France
  • List of Countries
  • For 7 days
  • Water Temperature
  • Weather Map
  • Weather Widgets
  • user-avatar
    Login

    Hourly Weather Kalemie

    Today, 9 December, Monday

    Time Temperature Precipitation Wind Pressure Humidity
    00:00 +30°C° 0 mm 1 mps 704 mmHg 37%
    01:00 +29°C° 0 mm 1 mps 704 mmHg 39%
    02:00 +28°C° 0 mm 1 mps 704 mmHg 37%
    03:00 +28°C° 0 mm 1 mps 705 mmHg 37%
    04:00 +27°C° 0 mm 1 mps 705 mmHg 37%
    05:00 +26°C° 0 mm 1 mps 705 mmHg 38%
    06:00 +27°C° 0 mm 1 mps 706 mmHg 36%
    07:00 +27°C° 0 mm 1 mps 706 mmHg 34%
    08:00 +29°C° 0 mm 1 mps 707 mmHg 31%
    09:00 +31°C° 0 mm 1 mps 707 mmHg 28%
    10:00 +34°C° 0 mm 2 mps 707 mmHg 25%
    11:00 +36°C° 0 mm 2 mps 707 mmHg 22%
    12:00 +37°C° 0 mm 2 mps 706 mmHg 21%
    13:00 +37°C° 0 mm 2 mps 705 mmHg 21%
    14:00 +38°C° 0 mm 2 mps 704 mmHg 21%
    15:00 +37°C° 0 mm 2 mps 704 mmHg 22%
    16:00 +36°C° 0 mm 2 mps 704 mmHg 23%
    17:00 +36°C° 0 mm 2 mps 704 mmHg 24%
    18:00 +33°C° 0 mm 1 mps 704 mmHg 27%
    19:00 +31°C° 0 mm 1 mps 704 mmHg 30%
    20:00 +29°C° 0 mm 1 mps 704 mmHg 33%
    21:00 +29°C° 0 mm 1 mps 705 mmHg 33%
    22:00 +29°C° 0 mm 1 mps 705 mmHg 34%
    23:00 +27°C° 0 mm 0 mps 705 mmHg 35%

    Tomorrow, 10 December, Tuesday

    Time Temperature Precipitation Wind Pressure Humidity
    00:00 +26°C° 0 mm 0 mps 705 mmHg 36%
    01:00 +25°C° 0 mm 0 mps 705 mmHg 38%
    02:00 +24°C° 0 mm 0 mps 705 mmHg 40%
    03:00 +26°C° 0 mm 1 mps 705 mmHg 40%
    04:00 +25°C° 0 mm 1 mps 705 mmHg 40%
    05:00 +25°C° 0 mm 1 mps 705 mmHg 41%
    06:00 +24°C° 0 mm 0 mps 706 mmHg 38%
    07:00 +25°C° 0 mm 0 mps 706 mmHg 35%
    08:00 +26°C° 0 mm 0 mps 707 mmHg 33%
    09:00 +30°C° 0 mm 1 mps 707 mmHg 27%
    10:00 +32°C° 0 mm 2 mps 707 mmHg 22%
    11:00 +35°C° 0 mm 3 mps 707 mmHg 17%
    12:00 +36°C° 0 mm 2 mps 706 mmHg 17%
    13:00 +37°C° 0 mm 2 mps 705 mmHg 18%
    14:00 +38°C° 0 mm 2 mps 704 mmHg 18%
    15:00 +37°C° 0 mm 2 mps 704 mmHg 19%
    16:00 +37°C° 0 mm 2 mps 704 mmHg 20%
    17:00 +36°C° 0 mm 2 mps 704 mmHg 21%
    18:00 +34°C° 0 mm 2 mps 704 mmHg 25%
    19:00 +31°C° 0 mm 2 mps 704 mmHg 28%
    20:00 +29°C° 0 mm 1 mps 704 mmHg 32%
    21:00 +28°C° 0 mm 1 mps 705 mmHg 34%
    22:00 +27°C° 0 mm 1 mps 705 mmHg 37%
    23:00 +27°C° 0 mm 1 mps 705 mmHg 40%

    Day after tomorrow, 11 December, Wednesday

    Time Temperature Precipitation Wind Pressure Humidity
    00:00 +26°C° 0 mm 1 mps 705 mmHg 42%
    01:00 +26°C° 0 mm 1 mps 704 mmHg 45%
    02:00 +25°C° 0 mm 1 mps 704 mmHg 48%
    03:00 +25°C° 0 mm 1 mps 704 mmHg 50%
    04:00 +22°C° 0 mm 0 mps 704 mmHg 51%
    05:00 +22°C° 0 mm 0 mps 704 mmHg 53%
    06:00 +25°C° 0 mm 1 mps 705 mmHg 49%
    07:00 +27°C° 0 mm 1 mps 705 mmHg 46%
    08:00 +28°C° 0 mm 1 mps 706 mmHg 42%
    09:00 +31°C° 0 mm 2 mps 706 mmHg 37%
    10:00 +34°C° 0 mm 2 mps 706 mmHg 33%
    11:00 +36°C° 0 mm 3 mps 706 mmHg 28%
    12:00 +37°C° 0 mm 2 mps 705 mmHg 28%
    13:00 +37°C° 0 mm 2 mps 704 mmHg 28%
    14:00 +38°C° 0 mm 2 mps 704 mmHg 28%
    15:00 +37°C° 0 mm 2 mps 703 mmHg 30%
    16:00 +35°C° 0 mm 1 mps 703 mmHg 32%
    17:00 +34°C° 0 mm 1 mps 703 mmHg 34%
    18:00 +33°C° 0.1 mm 1 mps 703 mmHg 37%
    19:00 +31°C° 0.1 mm 1 mps 704 mmHg 41%
    20:00 +30°C° 0.1 mm 1 mps 704 mmHg 44%
    21:00 +29°C° 0 mm 1 mps 704 mmHg 48%
    22:00 +28°C° 0 mm 1 mps 705 mmHg 52%
    23:00 +27°C° 0 mm 1 mps 705 mmHg 55%

    12 December, Thursday

    Time Temperature Precipitation Wind Pressure Humidity
    00:00 +27°C° 0.3 mm 1 mps 705 mmHg 59%
    01:00 +26°C° 0.3 mm 1 mps 704 mmHg 62%
    02:00 +25°C° 0.3 mm 1 mps 704 mmHg 65%
    03:00 +25°C° 0.1 mm 2 mps 704 mmHg 68%
    04:00 +24°C° 0.1 mm 2 mps 705 mmHg 72%
    05:00 +24°C° 0.1 mm 2 mps 705 mmHg 75%
    06:00 +25°C° 0.3 mm 2 mps 705 mmHg 72%
    07:00 +26°C° 0.3 mm 2 mps 706 mmHg 69%
    08:00 +26°C° 0.3 mm 3 mps 707 mmHg 66%
    09:00 +27°C° 0 mm 2 mps 707 mmHg 64%
    10:00 +28°C° 0 mm 2 mps 706 mmHg 61%
    11:00 +28°C° 0 mm 1 mps 706 mmHg 58%
    12:00 +31°C° 0 mm 1 mps 706 mmHg 48%
    13:00 +34°C° 0 mm 1 mps 706 mmHg 39%
    14:00 +35°C° 0 mm 0 mps 705 mmHg 29%
    15:00 +36°C° 0 mm 1 mps 705 mmHg 31%
    16:00 +34°C° 0 mm 1 mps 704 mmHg 33%
    17:00 +33°C° 0 mm 1 mps 704 mmHg 35%
    18:00 +31°C° 0 mm 1 mps 704 mmHg 41%
    19:00 +30°C° 0 mm 2 mps 704 mmHg 46%
    20:00 +28°C° 0 mm 2 mps 704 mmHg 51%
    21:00 +27°C° 0 mm 2 mps 704 mmHg 56%
    22:00 +27°C° 0 mm 2 mps 704 mmHg 60%
    23:00 +26°C° 0 mm 1 mps 704 mmHg 65%

    13 December, Friday

    Time Temperature Precipitation Wind Pressure Humidity
    00:00 +26°C° 0 mm 1 mps 704 mmHg 65%
    01:00 +25°C° 0 mm 1 mps 704 mmHg 66%
    02:00 +25°C° 0 mm 1 mps 704 mmHg 67%
    03:00 +25°C° 0 mm 1 mps 704 mmHg 68%
    04:00 +24°C° 0 mm 2 mps 705 mmHg 69%
    05:00 +24°C° 0 mm 2 mps 705 mmHg 71%
    06:00 +24°C° 0 mm 2 mps 705 mmHg 71%
    07:00 +25°C° 0 mm 2 mps 706 mmHg 71%
    08:00 +25°C° 0 mm 2 mps 706 mmHg 72%
    09:00 +27°C° 0 mm 2 mps 706 mmHg 66%
    10:00 +28°C° 0 mm 2 mps 706 mmHg 60%
    11:00 +30°C° 0 mm 2 mps 706 mmHg 53%
    12:00 +31°C° 0 mm 2 mps 706 mmHg 51%
    13:00 +31°C° 0 mm 1 mps 705 mmHg 48%
    14:00 +32°C° 0 mm 1 mps 704 mmHg 45%
    15:00 +32°C° 0 mm 1 mps 704 mmHg 43%
    16:00 +32°C° 0 mm 1 mps 704 mmHg 41%
    17:00 +30°C° 0 mm 0 mps 704 mmHg 39%
    18:00 +29°C° 0 mm 0 mps 704 mmHg 42%
    19:00 +28°C° 0 mm 0 mps 705 mmHg 45%
    20:00 +27°C° 0 mm 0 mps 705 mmHg 48%
    21:00 +26°C° 0 mm 0 mps 705 mmHg 50%
    22:00 +26°C° 0 mm 0 mps 705 mmHg 52%
    23:00 +25°C° 0 mm 0 mps 705 mmHg 54%

    14 December, Saturday

    Time Temperature Precipitation Wind Pressure Humidity
    00:00 +25°C° 0 mm 0 mps 705 mmHg 55%
    01:00 +24°C° 0 mm 0 mps 705 mmHg 55%
    02:00 +26°C° 0 mm 1 mps 704 mmHg 56%
    03:00 +26°C° 0 mm 1 mps 705 mmHg 57%
    04:00 +25°C° 0 mm 1 mps 705 mmHg 59%
    05:00 +25°C° 0 mm 1 mps 705 mmHg 60%
    06:00 +26°C° 0 mm 1 mps 706 mmHg 60%
    07:00 +26°C° 0 mm 1 mps 706 mmHg 61%
    08:00 +26°C° 0 mm 1 mps 707 mmHg 61%
    09:00 +29°C° 0 mm 1 mps 707 mmHg 54%
    10:00 +31°C° 0 mm 1 mps 707 mmHg 48%
    11:00 +33°C° 0 mm 1 mps 707 mmHg 41%
    12:00 +35°C° 0 mm 2 mps 706 mmHg 37%
    13:00 +36°C° 0 mm 2 mps 706 mmHg 32%
    14:00 +38°C° 0 mm 2 mps 705 mmHg 28%
    15:00 +37°C° 0 mm 2 mps 705 mmHg 28%
    16:00 +36°C° 0 mm 2 mps 705 mmHg 28%
    17:00 +35°C° 0 mm 2 mps 704 mmHg 28%
    18:00 +34°C° 0 mm 2 mps 705 mmHg 33%
    19:00 +31°C° 0 mm 2 mps 705 mmHg 38%
    20:00 +29°C° 0 mm 2 mps 705 mmHg 44%
    21:00 +29°C° 0.1 mm 1 mps 706 mmHg 49%
    22:00 +28°C° 0.1 mm 1 mps 706 mmHg 53%
    23:00 +27°C° 0.1 mm 1 mps 706 mmHg 58%
    Show more